Preview of NWS' New Version of Forecast
This preview is not operational and should not be used for support decisions.

Regional Weather Roundup (RWR)

Issued by National Weather Service (NWS)

                            
000
ASUS43 KTOP 200059
RWRKS 

WEATHER ROUNDUP FOR KANSAS
NATIONAL WEATHER SERVICE GOODLAND KS
800 PM CDT FRI APR 19 2019

NOTE:  "FAIR" INDICATES FEW OR NO CLOUDS BELOW 12,000 FEET WITH NO
SIGNIFICANT WEATHER AND/OR OBSTRUCTIONS TO VISIBILITY.

KSZ001>006-013>018-027>032-041>047-200200-
NORTHWEST KANSAS
  
CITY           SKY/WX    TMP DP  RH WIND       PRES   REMARKS
GOODLAND       CLEAR     70  36  28 CALM      29.97F                  
HAYS           CLEAR     64  34  32 SE5       30.00F                  
HILL CITY      CLEAR     65  34  31 SE5       29.98F                  
RUSSELL        CLEAR     63  30  28 CALM      29.99F                  
$$

KSZ061>065-074>080-084>089-200200-
SOUTHWEST KANSAS
  
CITY           SKY/WX    TMP DP  RH WIND       PRES   REMARKS
DODGE CITY     CLEAR     66  30  26 NE5       30.01F                  
GARDEN CITY    CLEAR     64  34  32 S5        30.00F                  
GREAT BEND     CLEAR     62  32  32 CALM      30.01F                  
LIBERAL        CLEAR     68  33  27 E3        30.02F                  
$$

KSZ066>073-081>083-090>101-200200-
SOUTHEAST KANSAS
  
CITY           SKY/WX    TMP DP  RH WIND       PRES   REMARKS
CHANUTE        CLEAR     59  33  37 N6        29.99S                  
COFFEYVILLE    CLEAR     58  34  40 N9        29.98S                  
HUTCHINSON     CLEAR     59  30  33 N5        30.01F                  
MEDICINE LODGE   N/A     62  34  35 N5        30.02S                  
NEWTON         CLEAR     58  32  37 NW6       30.02F                  
PARSONS        CLEAR     58  35  42 N6        30.00R                  
WICHITA INTL   PTCLDY    61  27  27 N7        30.01F                  
WICHITA JABRA  CLEAR     57  31  37 NW8       30.01F                  
WICHITA MCCONL CLEAR     59  29  32 N8        30.01S                  
WINFIELD       CLEAR     57  41  55 NW6       30.02F                  
$$

KSZ007>012-019>026-033>040-048>060-102>105-200200-
NORTHEAST KANSAS
  
CITY           SKY/WX    TMP DP  RH WIND       PRES   REMARKS
CONCORDIA      CLEAR     63  31  30 W3        29.99F                  
EMPORIA        CLEAR     57  30  35 N6        29.99S                  
LAWRENCE       CLEAR     55  33  43 NW7       29.97F                  
MANHATTAN      CLEAR     57  32  38 CALM      29.99F                  
OLATHE IND     CLEAR     53  34  48 N8        29.97F                  
OLATHE EXE     CLEAR     59  28  30 N6        29.96F                  
SALINA         CLEAR     62  32  32 NW6       30.01F                  
TOPEKA BILLARD CLEAR     60  28  29 NW5       29.98S                  
TOPEKA FORBES  CLEAR     58  30  34 N6        29.98S                  
$$